Track STARLINK-1694 now! 10-day predictions STARLINK-1694 is classified as:
1 46544U 20070N 21024.91667824 -.00026939 00000-0 -20032-2 0 9994 2 46544 53.0559 274.9691 0002492 75.0937 284.1429 15.02340306 1755